Regional Weather Roundup
Issued by NWS

Home | Current Version | Previous Version | Graphics & Text | Print | Product List | Glossary On
Versions: 1 2 3 4 5 6 7 8 9 10 11 12 13 14 15 16 17 18 19 20 21 22 23 24 25 26 27 28 29 30 31 32 33 34 35 36 37 38 39 40 41 42 43 44 45 46 47 48 49 50
263
ASUS43 KMPX 212210
RWRMN
WEATHER ROUNDUP FOR MINNESOTA
NATIONAL WEATHER SERVICE TWIN CITIES/CHANHASSEN MN
400 PM CST TUE FEB 21 2017


NOTE: "FAIR" INDICATES FEW OR NO CLOUDS BELOW 12,000 FEET WITH NO
SIGNIFICANT WEATHER AND/OR OBSTRUCTIONS TO VISIBILITY. N/A MEANS
CURRENT SKY AND/OR WEATHER CONDITIONS ARE NOT AVAILABLE.

MNZ060>063-068>070-212300-
   Twin Cities Metro

CITY           SKY/WX    TMP DP  RH WIND       PRES   REMARKS
TWIN CITIES    PTSUNNY   61  42  49 S9G18     29.71F
ST PAUL        PTSUNNY   61  42  49 SW14      29.72F
CRYSTAL        PTSUNNY   62  41  46 S15G23    29.70F
BLAINE         PTSUNNY   63  43  48 S14G22    29.70F
LAKEVILLE      MOSUNNY   57  45  62 S12G20    29.72F
EDEN PRAIRIE   MOSUNNY   60  45  57 S15       29.70F
SOUTH ST PAUL  MOSUNNY   60  41  48 S13       29.72S
LAKE ELMO      FAIR      61  43  51 S13G20    29.73F
$$
MNZ001>005-007-008-013>017-022>024-027-028-212300-
   Northwest Minnesota

CITY           SKY/WX    TMP DP  RH WIND       PRES   REMARKS
BEMIDJI        MOSUNNY   47  35  62 S5        29.64S
HALLOCK        FOG       34  32  93 N6        29.67S VSB 1/4 WCI  29
ROSEAU         CLOUDY    37  32  81 CALM      29.66F
WARROAD        SUNNY     36  30  80 CALM      29.68R
THIEF RVR FALL SUNNY     44  37  76 W5        29.66S
CROOKSTON      CLOUDY    39  37  93 NW5       29.68R FOG
FOSSTON        MOSUNNY   45  39  81 W7        29.66R
DETROIT LAKES  MOSUNNY   46  39  76 W6        29.68S
MOORHEAD       CLOUDY    45  39  81 W5        29.68S
PARK RAPIDS    CLOUDY    44  35  70 SW6       29.66R
MAHNOMEN       FAIR      44  39  82 SW9       29.66R
$$
MNZ006-009>011-018-025>026-212300-
   North Central Minnesota

CITY           SKY/WX    TMP DP  RH WIND       PRES   REMARKS
BAUDETTE       SUNNY     42  34  73 SE3       29.65S
FLAG ISLAND    PTSUNNY   34  30  86 NW5       29.67R FOG     WCI  30
INTL FALLS     SUNNY     41  33  73 NE7       29.64F
WASKISH        SUNNY     48  37  66 W3        29.64S
BIG FORK       SUNNY     46  34  61 S7        29.65F
LONGVILLE      CLOUDY    48  37  66 CALM      29.66S
GRAND RAPIDS   CLOUDY    47  35  63 SW5       29.68S
CRANE LAKE     SUNNY     48  34  57 CALM      29.67F
ORR            SUNNY     48  32  53 CALM      29.63S
COOK           SUNNY     48  32  53 S9        29.67S
WALKER         FAIR      46  36  67 SW7       29.66R
$$
MNZ012-019>021-037-212300-
   Northeast Minnesota

CITY           SKY/WX    TMP DP  RH WIND       PRES   REMARKS
DULUTH         MOSUNNY   49  35  58 S7        29.68S
ELY            SUNNY     50  30  46 CALM      29.67F
HIBBING        CLOUDY    47  31  53 S6        29.67R
EVELETH        CLOUDY    47  27  44 SW13      29.68R
DULUTH HARBOR  PTSUNNY   39  36  87 CALM      29.70F
TWO HARBORS    MOSUNNY   50  37  62 SW6       29.68S
SILVER BAY     SUNNY     48  34  57 SW5       29.69R
GRAND MARAIS     N/A     38  36  92 S3        29.73F
G MARAIS ARPRT SUNNY     45  30  57 SE5       29.71S
$$
MNZ029>031-032-039>041-046>048-054>057-064-212300-
   West Central Minnesota

CITY           SKY/WX    TMP DP  RH WIND       PRES   REMARKS
FERGUS FALLS   CLOUDY    50  43  76 W5        29.71F
WHEATON        CLOUDY    55  39  54 W3        29.69F
MORRIS         CLOUDY    55  45  67 W6        29.68R
ALEXANDRIA     CLOUDY    50  42  74 W6        29.68S
ELBOW LAKE     FAIR      51  42  72 CALM      29.69S
WADENA         CLOUDY    46  39  76 SW10      29.67S
GLENWOOD       PTSUNNY   52  45  76 SW7       29.69S
APPLETON       SUNNY     59  43  55 W7        29.68S
BENSON         MOSUNNY   61  39  44 W7        29.70S
ORTONVILLE     MOSUNNY   59  43  55 CALM      29.67F
MADISON        SUNNY     63  45  51 W8        29.68F
WILLMAR        FAIR      55  48  76 SW8       29.71S
$$
MNZ033>034-036-042>043-049>051-058-059-212300-
   Central Minnesota

CITY           SKY/WX    TMP DP  RH WIND       PRES   REMARKS
ST CLOUD       MOSUNNY   55  44  66 SW10      29.68S
SAUK CENTRE    FAIR      51  44  76 SW6       29.70R
PAYNESVILLE    MOSUNNY   54  43  66 SW9       29.70S
AITKIN         CLOUDY    48  36  61 S7        29.66S
PINE RIVER     CLOUDY    48  39  71 SW3       29.70R
BRAINERD       MOSUNNY   50  40  68 SW8       29.68R
STAPLES        CLOUDY    48  37  66 SW5       29.67S
LONG PRAIRIE   PTSUNNY   50  39  66 S7        29.68S
LITTLE FALLS   PTSUNNY   54  41  62 S7        29.68S
LITCHFIELD     MOSUNNY   57  46  67 SW5       29.71R
BUFFALO        CLOUDY    60  44  55 SW8       29.71S
MAPLE LAKE     CLOUDY    60  47  61 SW8       29.70F
HUTCHINSON     MOSUNNY   60  48  65 SW8       29.71S
$$
MNZ037-044-045-052-053-212300-
   East Central Minnesota

CITY           SKY/WX    TMP DP  RH WIND       PRES   REMARKS
PRINCETON      CLOUDY    59  45  58 S9        29.68F
MORA           MOSUNNY   50  41  71 CALM      29.70S
CAMBRIDGE      CLOUDY    59  45  58 S10       29.67F
RUSH CITY      CLOUDY    54  41  62 S6        29.69F
MOOSE LAKE     CLOUDY    50  36  57 SW5       29.67F
HINCKLEY       FAIR      52  41  66 S7        29.69S
CLOQUET        MOSUNNY   48  34  57 S6        29.68F
MCGREGOR       MOSUNNY   46  37  71 S3        29.68S
$$
MNZ071>073-080-081-089-090-097-098-212300-
   Southwest Minnesota

CITY           SKY/WX    TMP DP  RH WIND       PRES   REMARKS
MONTEVIDEO     SUNNY     61  45  55 W8        29.71R
GRANITE FALLS  MOSUNNY   62  48  62 S12       29.71S
CANBY          SUNNY     63  42  47 SW14      29.70S
MARSHALL       SUNNY     61  45  55 SW16      29.70F
REDWOOD FALLS  MOSUNNY   64  45  49 SW12      29.70S
OLIVIA         MOSUNNY   59  48  67 SW10      29.70S
PIPESTONE      SUNNY     63  37  39 SW13      29.72F
WINDOM         SUNNY     64  45  48 SW20G28   29.72S
WORTHINGTON    SUNNY     63  45  51 SW20      29.73F
JACKSON        SUNNY     63  41  45 SW15G22   29.75S
TRACY          SUNNY     62  46  55 SW17G24   29.70F
SLAYTON        SUNNY     61  44  52 SW16G22   29.73S
$$
MNZ065>067-074>077-082>085-091>093-212300-
   South Central Minnesota

CITY           SKY/WX    TMP DP  RH WIND       PRES   REMARKS
MANKATO          N/A     62  45  53 S16       29.72F
NEW ULM        PTSUNNY   61  46  59 SW14G21   29.71R
ST JAMES       MOSUNNY   61  45  55 SW15      29.73S
FAIRMONT       SUNNY     62  45  53 SW14      29.74F
GLENCOE        SUNNY     60  51  72 SW3       29.70S
FARIBAULT      SUNNY     61  45  55 S14G20    29.74F
OWATONNA       SUNNY     61  45  55 S20       29.75S
WASECA         SUNNY     59  46  63 S20G25    29.75F
ALBERT LEA     MOSUNNY   57  45  62 S10G17    29.77F
$$
MNZ078>079-086>088-094>096-212300-
   Southeast Minnesota

CITY           SKY/WX    TMP DP  RH WIND       PRES   REMARKS
ROCHESTER      SUNNY     55  45  68 S18G28    29.79F
RED WING       MOSUNNY   63  36  36 S10G16    29.75S
STANTON        MOSUNNY   61  45  56 S13       29.72F
DODGE CENTER   SUNNY     55  46  71 S17       29.77F
WINONA         SUNNY     61  41  48 S6        29.80F
AUSTIN         MOSUNNY   54  45  71 S14       29.79F
PRESTON        MOSUNNY   54  42  63 S14G20    29.81F
$$
ABBREVIATIONS USED IN REMARKS
   TC - TEMPERATURES IN CELSIUS
  WCI - WIND CHILL INDEX
   HX - HEAT INDEX
  VSB - VISIBILITY
$$




USA.gov is the U.S. government's official web portal to all federal, state and local government web resources and services.